UCA4511 KHSV-KMSY

Flight info

Callsign UCA4511
Flight time 1h 9m
Altitude 32000
Route IGB MCB TRSSH1
Aircraft E145/M-SABDFGRW/S

Departure

Time 2026-04-24 02:26
Airport Huntsville International Airport (KHSV)

Arrival

Time 2026-04-24 03:35
Airport Louis Armstrong New Orleans International Airport (KMSY)
Time Latitude Longitude Altitude Speed Heading
2026-04-24 01:58 34.64683 -86.77568 617 ft 0 kts 90°
2026-04-24 02:16 34.64683 -86.77567 617 ft 0 kts 90°
2026-04-24 02:17 34.64683 -86.77577 618 ft 1 kts 90°
2026-04-24 02:17 34.64680 -86.77597 618 ft 2 kts 64°
2026-04-24 02:17 34.64670 -86.77614 618 ft 2 kts 41°
2026-04-24 02:18 34.64656 -86.77624 619 ft 2 kts 19°
2026-04-24 02:18 34.64643 -86.77628 619 ft 1 kts
2026-04-24 02:18 34.64641 -86.77628 619 ft 0 kts
2026-04-24 02:20 34.64642 -86.77628 619 ft 0 kts 360°
2026-04-24 02:20 34.64653 -86.77630 619 ft 2 kts 343°
2026-04-24 02:20 34.64678 -86.77640 619 ft 4 kts 339°
2026-04-24 02:21 34.64716 -86.77660 619 ft 6 kts 331°
2026-04-24 02:21 34.64762 -86.77695 620 ft 7 kts 323°
2026-04-24 02:21 34.64803 -86.77745 621 ft 8 kts 309°
2026-04-24 02:21 34.64836 -86.77808 622 ft 8 kts 294°
2026-04-24 02:22 34.64861 -86.77882 624 ft 8 kts 292°
2026-04-24 02:22 34.64896 -86.77949 625 ft 9 kts 328°
2026-04-24 02:22 34.64975 -86.77966 625 ft 12 kts 360°
2026-04-24 02:22 34.65069 -86.77965 625 ft 14 kts
2026-04-24 02:23 34.65174 -86.77962 625 ft 15 kts
2026-04-24 02:23 34.65261 -86.78006 626 ft 13 kts 286°
2026-04-24 02:23 34.65266 -86.78080 627 ft 0 kts 270°
2026-04-24 02:24 34.65266 -86.78107 627 ft 8 kts 271°
2026-04-24 02:25 34.65254 -86.78189 627 ft 12 kts 232°
2026-04-24 02:25 34.65105 -86.78213 627 ft 48 kts 181°
2026-04-24 02:25 34.64495 -86.78224 627 ft 118 kts 181°
2026-04-24 02:25 34.63510 -86.78239 774 ft 149 kts 179°
2026-04-24 02:26 34.62398 -86.78194 1203 ft 166 kts 177°
2026-04-24 02:26 34.61155 -86.78131 1846 ft 180 kts 180°
2026-04-24 02:26 34.59887 -86.78137 2590 ft 189 kts 181°
2026-04-24 02:26 34.58500 -86.78145 3201 ft 202 kts 180°
2026-04-24 02:27 34.57020 -86.78156 3720 ft 218 kts 180°
2026-04-24 02:27 34.55340 -86.78169 4200 ft 237 kts 180°
2026-04-24 02:27 34.53610 -86.78183 4767 ft 250 kts 181°
2026-04-24 02:27 34.51790 -86.78198 5092 ft 255 kts 181°
2026-04-24 02:28 34.49960 -86.78212 5517 ft 257 kts 181°
2026-04-24 02:28 34.48136 -86.78511 6352 ft 256 kts 202°
2026-04-24 02:28 34.46629 -86.79705 7136 ft 257 kts 225°
2026-04-24 02:28 34.45456 -86.81456 7852 ft 261 kts 233°
2026-04-24 02:29 34.44357 -86.83341 8564 ft 265 kts 234°
2026-04-24 02:29 34.43289 -86.85239 9288 ft 267 kts 235°
2026-04-24 02:29 34.42192 -86.87202 10002 ft 270 kts 236°
2026-04-24 02:29 34.41092 -86.89173 10557 ft 278 kts 236°
2026-04-24 02:30 34.39929 -86.91258 10987 ft 290 kts 237°
2026-04-24 02:30 34.38660 -86.93529 11455 ft 301 kts 237°
2026-04-24 02:30 34.37360 -86.95857 11867 ft 313 kts 237°
2026-04-24 02:30 34.36054 -86.98193 12339 ft 322 kts 237°
2026-04-24 02:31 34.34732 -87.00556 12857 ft 327 kts 237°
2026-04-24 02:31 34.33369 -87.02989 13412 ft 331 kts 238°
2026-04-24 02:31 34.32007 -87.05421 13948 ft 335 kts 238°
2026-04-24 02:31 34.30684 -87.07780 14508 ft 337 kts 238°
2026-04-24 02:32 34.29332 -87.10191 15055 ft 339 kts 238°
2026-04-24 02:32 34.27961 -87.12633 15599 ft 342 kts 238°
2026-04-24 02:32 34.26524 -87.15192 16138 ft 344 kts 238°
2026-04-24 02:32 34.25109 -87.17705 16657 ft 347 kts 238°
2026-04-24 02:33 34.23716 -87.20179 17156 ft 349 kts 238°
2026-04-24 02:33 34.22311 -87.22673 17627 ft 352 kts 238°
2026-04-24 02:33 34.20864 -87.25243 18194 ft 351 kts 238°
2026-04-24 02:33 34.19473 -87.27710 18763 ft 350 kts 238°
2026-04-24 02:34 34.18092 -87.30157 19312 ft 349 kts 238°
2026-04-24 02:34 34.16680 -87.32658 19887 ft 347 kts 238°
2026-04-24 02:34 34.15278 -87.35141 20440 ft 346 kts 238°
2026-04-24 02:34 34.13895 -87.37588 20982 ft 344 kts 238°
2026-04-24 02:35 34.12523 -87.40014 21504 ft 343 kts 238°
2026-04-24 02:35 34.11142 -87.42453 22040 ft 342 kts 238°
2026-04-24 02:35 34.09766 -87.44883 22559 ft 340 kts 238°
2026-04-24 02:35 34.08419 -87.47259 23078 ft 339 kts 238°
2026-04-24 02:36 34.07067 -87.49643 23570 ft 338 kts 238°
2026-04-24 02:36 34.05736 -87.51987 24077 ft 337 kts 238°
2026-04-24 02:36 34.04392 -87.54353 24594 ft 335 kts 238°
2026-04-24 02:36 34.02994 -87.56813 25118 ft 334 kts 238°
2026-04-24 02:37 34.01615 -87.59238 25601 ft 334 kts 238°
2026-04-24 02:37 34.00281 -87.61583 26106 ft 332 kts 238°
2026-04-24 02:37 33.98935 -87.63947 26603 ft 330 kts 238°
2026-04-24 02:37 33.97578 -87.66329 27077 ft 330 kts 237°
2026-04-24 02:38 33.96236 -87.68681 27576 ft 328 kts 237°
2026-04-24 02:38 33.94926 -87.70979 28063 ft 326 kts 237°
2026-04-24 02:38 33.93642 -87.73226 28539 ft 324 kts 237°
2026-04-24 02:38 33.92363 -87.75467 29007 ft 322 kts 237°
2026-04-24 02:39 33.91073 -87.77724 29406 ft 322 kts 237°
2026-04-24 02:39 33.89775 -87.79992 29808 ft 322 kts 237°
2026-04-24 02:39 33.88434 -87.82337 30226 ft 322 kts 237°
2026-04-24 02:39 33.87157 -87.84565 30650 ft 320 kts 237°
2026-04-24 02:40 33.85898 -87.86763 31043 ft 320 kts 237°
2026-04-24 02:40 33.84632 -87.88970 31414 ft 319 kts 237°
2026-04-24 02:40 33.83364 -87.91180 31801 ft 319 kts 237°
2026-04-24 02:40 33.82097 -87.93390 31989 ft 325 kts 237°
2026-04-24 02:41 33.79446 -87.98001 31991 ft 339 kts 237°
2026-04-24 02:41 33.76696 -88.02781 31982 ft 352 kts 237°
2026-04-24 02:42 33.73842 -88.07736 31984 ft 364 kts 237°
2026-04-24 02:42 33.70903 -88.12829 31979 ft 375 kts 237°
2026-04-24 02:43 33.67849 -88.18116 31983 ft 385 kts 237°
2026-04-24 02:43 33.64693 -88.23570 31970 ft 394 kts 237°
2026-04-24 02:44 33.61463 -88.29144 31969 ft 402 kts 237°
2026-04-24 02:44 33.58212 -88.34746 31965 ft 408 kts 237°
2026-04-24 02:45 33.54922 -88.40406 31967 ft 414 kts 237°
2026-04-24 02:45 33.51597 -88.46119 31972 ft 419 kts 237°
2026-04-24 02:46 33.47944 -88.51638 31974 ft 426 kts 226°
2026-04-24 02:46 33.43057 -88.55914 31974 ft 432 kts 216°
2026-04-24 02:47 33.38027 -88.60014 31972 ft 430 kts 217°
2026-04-24 02:47 33.32897 -88.64223 31970 ft 429 kts 217°
2026-04-24 02:48 33.27947 -88.68282 31970 ft 428 kts 216°
2026-04-24 02:48 33.22876 -88.72433 31967 ft 427 kts 217°
2026-04-24 02:49 33.17912 -88.76493 31971 ft 427 kts 217°
2026-04-24 02:49 33.12998 -88.80505 31977 ft 426 kts 217°
2026-04-24 02:50 33.08055 -88.84536 31992 ft 425 kts 217°
2026-04-24 02:50 33.02934 -88.88707 31994 ft 425 kts 217°
2026-04-24 02:51 32.98025 -88.92698 32001 ft 425 kts 217°
2026-04-24 02:51 32.93040 -88.96747 32003 ft 424 kts 217°
2026-04-24 02:52 32.87989 -89.00841 32001 ft 424 kts 217°
2026-04-24 02:52 32.83062 -89.04832 32000 ft 425 kts 217°
2026-04-24 02:53 32.77903 -89.09003 31991 ft 426 kts 217°
2026-04-24 02:53 32.72854 -89.13081 31988 ft 428 kts 217°
2026-04-24 02:54 32.67852 -89.17114 31990 ft 428 kts 217°
2026-04-24 02:54 32.62873 -89.21123 31988 ft 429 kts 217°
2026-04-24 02:55 32.57838 -89.25172 31985 ft 430 kts 217°
2026-04-24 02:55 32.52817 -89.29205 31988 ft 431 kts 217°
2026-04-24 02:56 32.47791 -89.33235 31984 ft 431 kts 217°
2026-04-24 02:56 32.42755 -89.37268 31988 ft 432 kts 217°
2026-04-24 02:57 32.37648 -89.41353 31989 ft 432 kts 217°
2026-04-24 02:57 32.35088 -89.43398 31818 ft 432 kts 217°
2026-04-24 02:57 32.32597 -89.45386 31282 ft 435 kts 217°
2026-04-24 02:58 32.30061 -89.47410 30756 ft 437 kts 217°
2026-04-24 02:58 32.27515 -89.49440 30232 ft 438 kts 217°
2026-04-24 02:58 32.24891 -89.51530 29694 ft 440 kts 217°
2026-04-24 02:58 32.22300 -89.53593 29157 ft 441 kts 217°
2026-04-24 02:59 32.19776 -89.55600 29004 ft 437 kts 217°
2026-04-24 02:59 32.17226 -89.57629 28995 ft 438 kts 217°
2026-04-24 02:59 32.12128 -89.61678 28989 ft 438 kts 217°
2026-04-24 03:00 32.07038 -89.65714 28992 ft 439 kts 217°
2026-04-24 03:00 32.01891 -89.69791 28994 ft 439 kts 217°
2026-04-24 03:01 31.96719 -89.73883 28992 ft 440 kts 217°
2026-04-24 03:01 31.91571 -89.77949 28996 ft 440 kts 217°
2026-04-24 03:02 31.86350 -89.82068 28993 ft 441 kts 217°
2026-04-24 03:02 31.81035 -89.86254 28999 ft 441 kts 217°
2026-04-24 03:03 31.75876 -89.90311 28998 ft 440 kts 217°
2026-04-24 03:03 31.70727 -89.94357 28999 ft 440 kts 217°
2026-04-24 03:04 31.65466 -89.98483 28998 ft 440 kts 217°
2026-04-24 03:04 31.60153 -90.02645 28995 ft 440 kts 217°
2026-04-24 03:05 31.54858 -90.06788 28921 ft 441 kts 217°
2026-04-24 03:05 31.52288 -90.08796 28379 ft 441 kts 217°
2026-04-24 03:05 31.49686 -90.10828 27844 ft 439 kts 217°
2026-04-24 03:06 31.47158 -90.12801 27326 ft 436 kts 217°
2026-04-24 03:06 31.44586 -90.14806 26793 ft 433 kts 217°
2026-04-24 03:06 31.42093 -90.16750 26274 ft 430 kts 217°
2026-04-24 03:06 31.39521 -90.18753 25736 ft 427 kts 218°
2026-04-24 03:07 31.37017 -90.20702 25211 ft 425 kts 217°
2026-04-24 03:07 31.34497 -90.22620 24681 ft 424 kts 214°
2026-04-24 03:07 31.32001 -90.24373 24173 ft 421 kts 215°
2026-04-24 03:07 31.29186 -90.25671 23642 ft 428 kts 195°
2026-04-24 03:08 31.26202 -90.25816 23140 ft 433 kts 176°
2026-04-24 03:08 31.20228 -90.25092 22165 ft 427 kts 179°
2026-04-24 03:08 31.17255 -90.24854 21673 ft 425 kts 179°
2026-04-24 03:09 31.14285 -90.24628 21176 ft 417 kts 179°
2026-04-24 03:09 31.11415 -90.24413 20679 ft 405 kts 179°
2026-04-24 03:09 31.08594 -90.24205 20180 ft 397 kts 179°
2026-04-24 03:09 31.05829 -90.24001 19688 ft 393 kts 179°
2026-04-24 03:10 31.03096 -90.23801 19200 ft 390 kts 179°
2026-04-24 03:10 31.00371 -90.23599 18708 ft 386 kts 179°
2026-04-24 03:10 30.97686 -90.23402 18221 ft 383 kts 178°
2026-04-24 03:10 30.95029 -90.23206 17737 ft 380 kts 178°
2026-04-24 03:11 30.92377 -90.23012 17253 ft 377 kts 178°
2026-04-24 03:11 30.89743 -90.22818 16770 ft 374 kts 178°
2026-04-24 03:11 30.87007 -90.22617 16259 ft 371 kts 178°
2026-04-24 03:11 30.84319 -90.22421 15752 ft 368 kts 178°
2026-04-24 03:12 30.81758 -90.22234 15265 ft 365 kts 178°
2026-04-24 03:12 30.79209 -90.22047 14776 ft 361 kts 178°
2026-04-24 03:12 30.76722 -90.21865 14280 ft 351 kts 178°
2026-04-24 03:12 30.74274 -90.21687 13710 ft 344 kts 178°
2026-04-24 03:13 30.71911 -90.21514 13219 ft 336 kts 178°
2026-04-24 03:13 30.69563 -90.21343 12723 ft 329 kts 178°
2026-04-24 03:13 30.67288 -90.21177 12237 ft 323 kts 178°
2026-04-24 03:13 30.65044 -90.21013 11747 ft 318 kts 178°
2026-04-24 03:14 30.62890 -90.20856 11217 ft 302 kts 178°
2026-04-24 03:14 30.60811 -90.20705 11001 ft 296 kts 177°
2026-04-24 03:14 30.58703 -90.20551 10985 ft 296 kts 177°
2026-04-24 03:14 30.56570 -90.20395 10985 ft 297 kts 177°
2026-04-24 03:15 30.54521 -90.20245 10804 ft 292 kts 177°
2026-04-24 03:15 30.52447 -90.20093 10299 ft 291 kts 177°
2026-04-24 03:15 30.50433 -90.19945 9816 ft 291 kts 177°
2026-04-24 03:15 30.48381 -90.19795 9326 ft 289 kts 177°
2026-04-24 03:16 30.46325 -90.19643 8872 ft 286 kts 177°
2026-04-24 03:16 30.44330 -90.19498 8498 ft 281 kts 177°
2026-04-24 03:16 30.42393 -90.19357 8126 ft 276 kts 177°
2026-04-24 03:16 30.40431 -90.19215 7745 ft 272 kts 176°
2026-04-24 03:17 30.38550 -90.19077 7375 ft 268 kts 176°
2026-04-24 03:17 30.36700 -90.18943 7009 ft 264 kts 176°
2026-04-24 03:17 30.34857 -90.18810 6637 ft 261 kts 176°
2026-04-24 03:17 30.33044 -90.18677 6268 ft 259 kts 176°
2026-04-24 03:18 30.31222 -90.18546 5891 ft 257 kts 176°
2026-04-24 03:18 30.29426 -90.18415 5518 ft 254 kts 176°
2026-04-24 03:18 30.27629 -90.18285 5135 ft 252 kts 176°
2026-04-24 03:18 30.25871 -90.18157 4756 ft 250 kts 175°
2026-04-24 03:19 30.24106 -90.18029 4359 ft 248 kts 175°
2026-04-24 03:19 30.22395 -90.17905 4032 ft 243 kts 175°
2026-04-24 03:19 30.20679 -90.17809 3997 ft 241 kts 182°
2026-04-24 03:19 30.19095 -90.18459 4007 ft 246 kts 215°
2026-04-24 03:20 30.18056 -90.20074 4011 ft 252 kts 249°
2026-04-24 03:20 30.17949 -90.22106 4012 ft 258 kts 281°
2026-04-24 03:20 30.18438 -90.24149 4004 ft 260 kts 284°
2026-04-24 03:20 30.18943 -90.26170 4014 ft 262 kts 284°
2026-04-24 03:21 30.19445 -90.28188 4003 ft 263 kts 284°
2026-04-24 03:21 30.19969 -90.30272 3994 ft 264 kts 284°
2026-04-24 03:21 30.20490 -90.32345 3992 ft 265 kts 284°
2026-04-24 03:21 30.21019 -90.34425 3996 ft 265 kts 284°
2026-04-24 03:22 30.21542 -90.36468 3999 ft 265 kts 284°
2026-04-24 03:22 30.22070 -90.38534 3991 ft 264 kts 284°
2026-04-24 03:22 30.22599 -90.40585 3995 ft 263 kts 285°
2026-04-24 03:22 30.23124 -90.42641 3997 ft 263 kts 284°
2026-04-24 03:23 30.23643 -90.44665 3989 ft 263 kts 285°
2026-04-24 03:23 30.24183 -90.46767 3988 ft 262 kts 284°
2026-04-24 03:23 30.24714 -90.48836 4001 ft 261 kts 285°
2026-04-24 03:23 30.25232 -90.50851 3997 ft 261 kts 285°
2026-04-24 03:24 30.25757 -90.52895 3989 ft 259 kts 285°
2026-04-24 03:24 30.26273 -90.54873 3987 ft 253 kts 285°
2026-04-24 03:24 30.26781 -90.56808 3984 ft 247 kts 285°
2026-04-24 03:24 30.27280 -90.58684 3982 ft 241 kts 285°
2026-04-24 03:25 30.27540 -90.60578 3978 ft 230 kts 259°
2026-04-24 03:25 30.26893 -90.62176 3997 ft 215 kts 221°
2026-04-24 03:25 30.25606 -90.62935 4007 ft 206 kts 190°
2026-04-24 03:25 30.24163 -90.63229 3984 ft 206 kts 188°
2026-04-24 03:26 30.22738 -90.63512 3978 ft 206 kts 188°
2026-04-24 03:26 30.21324 -90.63785 3971 ft 205 kts 184°
2026-04-24 03:26 30.19896 -90.63837 3973 ft 204 kts 179°
2026-04-24 03:26 30.18437 -90.63856 3974 ft 208 kts 179°
2026-04-24 03:27 30.16956 -90.63881 3975 ft 211 kts 179°
2026-04-24 03:27 30.15448 -90.63901 3971 ft 214 kts 176°
2026-04-24 03:27 30.13977 -90.63558 3980 ft 214 kts 159°
2026-04-24 03:27 30.12639 -90.62742 3985 ft 216 kts 149°
2026-04-24 03:28 30.11325 -90.61833 3979 ft 217 kts 149°
2026-04-24 03:28 30.10041 -90.60947 3979 ft 216 kts 149°
2026-04-24 03:28 30.08717 -90.60029 3977 ft 216 kts 149°
2026-04-24 03:28 30.07463 -90.59077 3974 ft 216 kts 136°
2026-04-24 03:29 30.06738 -90.57529 3996 ft 216 kts 108°
2026-04-24 03:29 30.06348 -90.55856 3981 ft 216 kts 108°
2026-04-24 03:29 30.05935 -90.54162 3979 ft 216 kts 108°
2026-04-24 03:29 30.05530 -90.52486 3921 ft 217 kts 108°
2026-04-24 03:30 30.05120 -90.50779 3691 ft 213 kts 108°
2026-04-24 03:30 30.04734 -90.49159 3435 ft 200 kts 108°
2026-04-24 03:30 30.04383 -90.47679 3182 ft 178 kts 108°
2026-04-24 03:30 30.04050 -90.46313 2966 ft 172 kts 108°
2026-04-24 03:31 30.03732 -90.45000 2755 ft 167 kts 108°
2026-04-24 03:31 30.03414 -90.43671 2541 ft 162 kts 109°
2026-04-24 03:31 30.03096 -90.42350 2328 ft 158 kts 109°
2026-04-24 03:31 30.02787 -90.41077 2124 ft 154 kts 109°
2026-04-24 03:32 30.02500 -90.39876 1940 ft 142 kts 109°
2026-04-24 03:32 30.02237 -90.38791 1744 ft 128 kts 109°
2026-04-24 03:32 30.01976 -90.37714 1571 ft 125 kts 109°
2026-04-24 03:32 30.01724 -90.36671 1405 ft 123 kts 109°
2026-04-24 03:33 30.01466 -90.35603 1239 ft 126 kts 109°
2026-04-24 03:33 30.01208 -90.34536 1069 ft 128 kts 109°
2026-04-24 03:33 30.00946 -90.33458 897 ft 130 kts 108°
2026-04-24 03:33 30.00687 -90.32390 727 ft 131 kts 108°
2026-04-24 03:34 30.00441 -90.31370 563 ft 127 kts 108°
2026-04-24 03:34 30.00196 -90.30357 403 ft 123 kts 108°
2026-04-24 03:34 29.99948 -90.29335 246 ft 128 kts 107°
2026-04-24 03:34 29.99692 -90.28269 77 ft 128 kts 107°
2026-04-24 03:35 29.99448 -90.27274 10 ft 110 kts 107°
2026-04-24 03:35 29.99330 -90.26796 10 ft 41 kts 105°
2026-04-24 03:35 29.99271 -90.26534 10 ft 21 kts 95°
2026-04-24 03:35 29.99350 -90.26459 10 ft 8 kts 15°
2026-04-24 03:36 29.99357 -90.26457 10 ft 2 kts 14°
2026-04-24 03:36 29.99381 -90.26450 10 ft 4 kts 14°
2026-04-24 03:36 29.99423 -90.26432 10 ft 7 kts 30°
2026-04-24 03:36 29.99453 -90.26373 10 ft 9 kts 90°
2026-04-24 03:37 29.99433 -90.26289 10 ft 11 kts 106°
2026-04-24 03:37 29.99413 -90.26183 10 ft 13 kts 102°
2026-04-24 03:37 29.99385 -90.26063 10 ft 15 kts 106°
2026-04-24 03:37 29.99352 -90.25932 10 ft 15 kts 106°
2026-04-24 03:38 29.99381 -90.25843 10 ft 13 kts
2026-04-24 03:38 29.99470 -90.25883 10 ft 15 kts 295°
2026-04-24 03:38 29.99518 -90.25987 10 ft 7 kts 321°
2026-04-24 03:38 29.99562 -90.26002 10 ft 5 kts 20°
2026-04-24 03:39 29.99589 -90.25987 10 ft 2 kts 28°
2026-04-24 03:39 29.99590 -90.25987 10 ft 0 kts 28°